Погода в Вашковцах

Украина / Черновицкая область     48°24′20″N   27°07′36″E
темп.,
°C
ветер,
м/с
пор.,
м/с
влажн.,
%
обл.,
%
осадки,
мм/ч
давл.,
гПа
погр.,
м
22 апреля, чт
чт2200:00+8юз35745 0.0 101675
03:00+7ююз33775 0.1 101643
06:00+6юз23775 0.0 101731
09:00+11юз345999 0.0 1017296
12:00+16ююз44454 0.0 10171291
15:00+18ююз463882 0.0 10152496
18:00+14сз356493 0.3 1015287
21:00+10св118672 1.5 101512
23 апреля, пт
пт2300:00+8сз49875 1.4 1016258
03:00+5сз499337 1.4 1018405
06:00+5ссз3883100 0.0 1018510
09:00+6ссв2472100 1.1 1019593
12:00+9зсз4556100 0.1 10191513
15:00+11сз4644100 0.3 10181974
18:00+10сз6744100 0.0 10181927
21:00+6зсз365820 0.0 1020110
24 апреля, сб
сб2400:00+4з487850 0.0 1021189
03:00+3з5128255 0.0 1020330
06:00+2зсз8138499 0.0 1021816
09:00+4сз812585 0.0 10231471
12:00+8сз81138100 0.0 10232652
15:00+9сз71038100 0.0 10232689
18:00+9сз711385 0.0 10222092
21:00+6зсз115493 0.0 102312
25 апреля, вс
вс2500:00+5юз115599 0.0 102310
03:00+4ююз34575 0.0 102266
06:00+3ююз2261100 0.0 102125
09:00+7зюз4654100 0.0 1020589
12:00+10сз6659100 0.1 10201559
15:00+9сз876676 0.3 10201216
18:00+8сз685285 0.1 10211424
21:00+5сз335787 0.1 102253
26 апреля, пн
пн2600:00+2сз23640 0.0 102329
03:00+1з23675 0.0 102233
06:000з39770 0.0 1022177
09:00+5зсз710575 0.0 10211027
12:00+8зсз81141100 0.0 10212440
15:00+9сз71036100 0.0 10202578
18:00+9ссз5735100 0.0 10192081
21:00+6ссв1147100 0.0 102011